NOAA 16 DEB

Satellite information

Favourite Embed

Satellite Type and Status

DEBRISIN ORBIT

Key statistics

Satellite NOAA 16 DEB at a glance.

Uptime

8993

Days in orbit

Revolutions

≈ 14.1

Per day

Orbit

SSO

Sun Synchronous Orbit

Inclination

98.6

Latest

Satellite identification and parameters

Extended collection of information and parameters for NOAA 16 DEB.

Object identification

Identified? True

Debris? True

Object name: NOAA 16 DEB

International designator: 2000-055QS

Object number (NORAD): 42350

Object ID (CCSDS): 42350

Country: UNITED STATES OF AMERICA (US)

Current information (Y/N): Y

RCS size: SMALL

Orbital parameters

Period: 102.147 minutes

Inclination: 98.6186 deg

SMA: 7238.441 km

Apoapsis: 878.314 km

Periapsis: 842.297 km

RAAN: 121.6677 deg

Eccentricy: 0.0024879

Argument of periapsis: 311.7616 deg

Mean anomaly: 48.1428 deg

Mean motion: 14.09727676 rev/day

Mean motion (dot): 0.00001287 rev/day2

B* drag term: 0.00075513 1/REarth

Two-line elements (TLE)

Creation date: May 5, 2025, 6:36 a.m.

Reference frame: TEME

Reference center: EARTH

Epoch: May 5, 2025, 5:08 a.m. UTC

TLE line 0: 0 NOAA 16 DEB

TLE line 1: 1 42350U 00055QS 25125.21391384 .00001287 00000-0 75513-3 0 9992

TLE line 2: 2 42350 98.6186 121.6677 0024879 311.7616 48.1428 14.09727676438763

Live tracking on map

Real-time ground track for satellite NOAA 16 DEB.

In-orbit conjunctions

A list of the most updated potential collisions computed for object NOAA 16 DEB.

Target Orbit TCA Probability of collision Miss distance Type
NOAA 16 DEB SSO 2024-11-14 20:31:20 0.0001458844 436.0 (m) DEBRIS
METEOR 2-7 LEO 2024-11-13 00:48:38 0.0007767729 734.0 (m) PAYLOAD
COSMOS 1844 LEO 2024-09-28 09:13:45 0.0005138512 100.0 (m) PAYLOAD

Associated space launch

The NOAA K, L and M POES satellites begin the fifth generation of improved environmental monitoring in support of NOAA missions. The instrument payload has significant improvements and additions/deletions. The instrument changes have effected the spacecraft subsystems and data formats.

NOAA 16 DEB was lifted into orbit during the mission ‘Titan II SLV | NOAA 16’, on board a Titan II SLV space rocket.

The launch took place on Sept. 21, 2000, 10:22 a.m. from Space Launch Complex 4W.

For more information about the launch, click the button.

Launch to space Titan II SLV | NOAA 16
Titan II SLV | NOAA 16

Agency: N/A

Status: Launch Successful

Launch date: Sept. 21, 2000, 10:22 a.m. UTC

Rocket: Titan II SLV

Launch pad: Space Launch Complex 4W

Location: Vandenberg SFB, CA, USA

...

Latest news about this satellite

There are no fresh news available about this satellite. Check back as we update our databases every day.


Newsletter sign-up

Weekly statistics, charts and insights to help you stay on top of the space industry.